This demonstration page uses our WeatherBlox Daily Observations layout. Learn more.

Hourly Observations for August 3, 2018

Temp ( °F °C ) Dew Point ( °F °C ) Humidity (%) Winds ( mph kmh ) Pressure ( in mb ) Visibility ( mi km ) Precip ( " mm )
12:15 am 00:15 Clear 71 21.5 63 17 76 76 S 7 11 29.88 1012 10 16.09344 0 0
12:35 am 00:35 Clear 71 21.5 63 17 76 76 S 9 15 29.88 1012 10 16.09344 0 0
12:55 am 00:55 Clear 70 21.3 63 17.1 77 77 S 8 13 29.91 1013 10 16.09344 0 0
1:15 am 01:15 Clear 70 21.1 63 17 78 78 S 8 13 29.91 1013 10 16.09344 0 0
1:35 am 01:35 Clear 70 21.1 62 16.8 77 77 S 8 13 29.88 1012 10 16.09344 0 0
1:55 am 01:55 Clear 70 21.3 62 16.7 75 75 S 10 17 29.88 1012 10 16.09344 0 0
2:15 am 02:15 Clear 70 21 62 16.6 76 76 S 10 17 29.88 1012 10 16.09344 0 0
2:35 am 02:35 Clear 70 20.9 62 16.5 76 76 S 9 15 29.88 1012 10 16.09344 0 0
2:55 am 02:55 Clear 69 20.7 62 16.6 77 77 S 9 15 29.88 1012 10 16.09344 0 0
3:15 am 03:15 Clear 69 20.3 62 16.5 79 79 S 7 11 29.88 1012 10 16.09344 0 0
3:35 am 03:35 Clear 69 20.5 62 16.5 78 78 S 9 15 29.88 1012 10 16.09344 0 0
3:55 am 03:55 Clear 67 19.7 62 16.5 82 82 S 8 13 29.88 1012 10 16.09344 0 0
4:15 am 04:15 Clear 67 19.6 62 16.5 82 82 S 8 13 29.88 1012 10 16.09344 0 0
4:35 am 04:35 Clear 67 19.6 62 16.5 82 82 S 9 15 29.88 1012 10 16.09344 0 0
4:55 am 04:55 Clear 67 19.4 62 16.5 83 83 S 7 11 29.88 1012 10 16.09344 0 0
5:15 am 05:15 Clear 67 19.2 62 16.5 84 84 S 7 11 29.88 1012 10 16.09344 0 0
5:35 am 05:35 Clear 67 19.5 62 16.4 82 82 S 8 13 29.88 1012 10 16.09344 0 0
5:55 am 05:55 Clear 66 18.7 62 16.4 87 87 S 6 9 29.91 1013 10 16.09344 0 0
6:15 am 06:15 Clear 65 18.5 62 16.5 88 88 S 8 13 29.91 1013 10 16.09344 0 0
6:35 am 06:35 Clear 66 19.1 62 16.5 85 85 S 9 15 29.91 1013 10 16.09344 0 0
6:55 am 06:55 Sunny 66 19.1 62 16.5 85 85 S 7 11 29.91 1013 10 16.09344 0 0
7:15 am 07:15 Sunny 65 18.6 62 16.5 88 88 S 7 11 29.91 1013 10 16.09344 0 0
7:35 am 07:35 Sunny 66 19.1 62 16.7 86 86 S 8 13 29.91 1013 10 16.09344 0 0
7:55 am 07:55 Sunny 67 19.7 63 17 85 85 S 9 15 29.88 1012 10 16.09344 0 0
8:15 am 08:15 Sunny 68 20.2 63 17 82 82 S 10 17 29.88 1012 10 16.09344 0 0
8:35 am 08:35 Sunny 70 20.9 63 17.2 79 79 S 9 15 29.88 1012 10 16.09344 0 0
8:55 am 08:55 Sunny 71 21.7 64 17.5 77 77 S 12 19 29.88 1012 10 16.09344 0 0
9:15 am 09:15 Sunny 73 22.7 64 17.5 73 73 S 13 20 29.88 1012 10 16.09344 0 0
9:35 am 09:35 Sunny 74 23.5 64 17.5 69 69 S 13 20 29.85 1011 10 16.09344 0 0
9:55 am 09:55 Sunny 75 24.1 63 17.4 66 66 SSW 15 24 29.85 1011 10 16.09344 0 0
10:15 am 10:15 Sunny 77 24.8 64 17.8 65 65 S 12 19 29.85 1011 10 16.09344 0 0
10:35 am 10:35 Sunny 77 25.2 65 18.1 65 65 S 10 17 29.85 1011 10 16.09344 0 0
10:55 am 10:55 Sunny 78 25.6 64 17.9 63 63 S 13 20 29.85 1011 10 16.09344 0 0
11:15 am 11:15 Sunny 79 26.1 65 18.1 61 61 S 14 22 29.85 1011 10 16.09344 0 0
11:35 am 11:35 Sunny 80 26.4 65 18.5 62 62 S 14 22 29.85 1011 10 16.09344 0 0
11:55 am 11:55 Sunny 80 26.8 66 18.9 62 62 S 14 22 29.83 1010 10 16.09344 0 0
12:15 pm 12:15 Sunny 82 27.5 67 19.2 61 61 S 14 22 29.83 1010 10 16.09344 0 0
12:35 pm 12:35 Sunny 82 27.6 66 18.9 59 59 S 14 22 29.8 1009 10 16.09344 0 0
12:55 pm 12:55 Sunny 83 28.3 67 19.4 59 59 S 13 20 29.8 1009 10 16.09344 0 0
1:15 pm 13:15 Sunny 83 28.6 67 19.2 57 57 S 15 24 29.8 1009 10 16.09344 0 0
1:35 pm 13:35 Sunny 84 29.1 67 19.5 56 56 S 13 20 29.8 1009 10 16.09344 0 0
1:55 pm 13:55 Sunny 85 29.6 67 19.7 55 55 S 13 20 29.77 1008 10 16.09344 0 0
2:15 pm 14:15 Sunny 85 29.6 68 20 56 56 SSE 13 20 29.77 1008 10 16.09344 0 0
2:35 pm 14:35 Sunny 86 30 67 19.6 54 54 SSE 16 26 29.74 1007 10 16.09344 0 0
2:55 pm 14:55 Sunny 86 30.2 67 19.3 52 52 SSE 16 26 29.74 1007 10 16.09344 0 0
3:15 pm 15:15 Sunny 87 30.8 67 19.3 50 50 SSE 15 24 29.74 1007 10 16.09344 0 0
3:35 pm 15:35 Sunny 88 31 66 19.1 49 49 S 16 26 29.74 1007 10 16.09344 0 0
3:55 pm 15:55 Sunny 88 31.3 67 19.3 49 49 S 13 20 29.74 1007 10 16.09344 0 0
4:15 pm 16:15 Sunny 88 31.3 66 19.1 48 48 S 14 22 29.71 1006 10 16.09344 0 0
4:35 pm 16:35 Sunny 89 31.5 66 19.1 48 48 S 13 20 29.71 1006 10 16.09344 0 0
4:55 pm 16:55 Sunny 87 30.3 67 19.3 52 52 S 12 19 29.71 1006 10 16.09344 0 0
5:15 pm 17:15 Sunny 87 30.5 67 19.2 51 51 S 13 20 29.71 1006 10 16.09344 0 0
5:35 pm 17:35 Sunny 88 31 67 19.5 50 50 S 13 20 29.71 1006 10 16.09344 0 0
5:55 pm 17:55 Sunny 87 30.8 66 19 49 49 S 15 24 29.71 1006 10 16.09344 0 0
6:15 pm 18:15 Sunny 87 30.5 67 19.3 51 51 S 14 22 29.71 1006 10 16.09344 0 0
6:35 pm 18:35 Sunny 85 29.6 66 18.9 53 53 S 13 20 29.71 1006 10 16.09344 0 0
6:55 pm 18:55 Sunny 84 28.9 65 18.5 53 53 SSE 12 19 29.71 1006 10 16.09344 0 0
7:15 pm 19:15 Sunny 83 28.6 65 18.4 54 54 SSE 13 20 29.71 1006 10 16.09344 0 0
7:35 pm 19:35 Sunny 83 28.1 65 18.3 55 55 SSE 12 19 29.68 1005 10 16.09344 0 0
7:55 pm 19:55 Sunny 81 27.4 65 18.5 58 58 SSE 12 19 29.68 1005 10 16.09344 0 0
8:15 pm 20:15 Sunny 81 27.1 65 18.2 58 58 SSE 12 19 29.68 1005 10 16.09344 0 0
8:35 pm 20:35 Sunny 81 27.2 64 18 57 57 SSE 12 19 29.68 1005 10 16.09344 0 0
8:55 pm 20:55 Clear 81 27.2 64 17.8 57 57 SSE 12 19 29.71 1006 10 16.09344 0 0
9:15 pm 21:15 Clear 81 27 64 17.7 57 57 SSE 13 20 29.71 1006 10 16.09344 0 0
9:35 pm 21:35 Clear 81 27 64 17.6 56 56 SSE 14 22 29.71 1006 10 16.09344 0 0
9:55 pm 21:55 Partly Cloudy 81 27 64 17.5 56 56 S 13 20 29.71 1006 10 16.09344 0 0
10:15 pm 22:15 Mostly Cloudy with Rain 77 24.8 67 19.2 71 71 S 18 30 29.8 1009 5 8.04672 0.02 0.508
10:35 pm 22:35 Cloudy 74 23.6 67 19.4 77 77 WSW 14 22 29.83 1010 10 16.09344 0.06 1.524
10:55 pm 22:55 Cloudy with Thunderstorms 72 22.2 70 21 93 93 WSW 7 11 29.88 1012 10 16.09344 0.09 2.286
11:15 pm 23:15 Cloudy with Thunderstorms 71 21.9 69 20.6 92 92 SW 13 20 29.88 1012 7 11.265408 0.03 0.762
11:35 pm 23:35 Cloudy with Light Thunderstorms 69 20.6 67 19.6 94 94 SSW 6 9 29.85 1011 7 11.265408 0.11 2.794
11:55 pm 23:55 Mostly Cloudy with Rain 69 20.3 68 19.8 97 97 W 9 15 29.85 1011 10 16.09344 0.13 3.302

Powered by AerisWeather